Torna al catalogo

NIMBUS 2 DEB

AttivoLEO
NORAD 38183·DEBRIS·🇺🇸 United States

Lanciato May 15, 1966 da Vandenberg Space Force Base

Loading…

Prossimi Passaggi (prossime 24 ore)

TLE

AggiornatoSource: Space-Track

Epoca: Sep 14, 2026, 06:56 UTC

1 38183U 66040BB  26257.28914992  .00001182  00000-0  20149-2 0  9995
2 38183 100.4608 189.9902 0058197 348.7784 165.2940 13.46737206721010

Traccia NIMBUS 2 DEB in tempo reale con AllMySat

Download on the App Store